contact:dominique.lefevre@mio.osupytheas.fr, maurice.libes@osupytheas.fr, didier.mallarino@osupytheas.fr
Project:EMSO http://www.emso-fr.org/EMSO-France
Depth: 2436.0 m
Title:EMSO Ligure Ouest : Data MII capteur CSTAR
DateTime,Latitude,Longitude,Instrument_Serial,Reference_Counts,Signal_Counts,Corrected_Signal_raw_counts,Calculated_Beam_c_inverse_meters,Internal_thermistor_counts
DateTime,Latitude,Longitude,Instrument_Serial,Reference_Counts,Signal_Counts,Corrected_Signal_raw_counts,Calculated_Beam_c_inverse_meters,Internal_thermistor_counts
2020-03-23T00:02:28,42.805,6.029,CST-1368DR,6580,9225,15209,0.106,551
2020-03-23T00:05:30,42.805,6.029,CST-1368DR,6580,9224,15208,0.106,551
2020-03-23T00:08:31,42.805,6.029,CST-1368DR,6580,9225,15209,0.106,551
2020-03-23T00:11:33,42.805,6.029,CST-1368DR,6580,9224,15206,0.106,551
2020-03-23T00:14:35,42.805,6.029,CST-1368DR,6580,9225,15208,0.106,551
2020-03-23T00:17:36,42.805,6.029,CST-1368DR,6580,9225,15209,0.106,551
2020-03-23T00:20:38,42.805,6.029,CST-1368DR,6580,9225,15209,0.106,551
2020-03-23T00:23:40,42.805,6.029,CST-1368DR,6580,9225,15209,0.106,551
2020-03-23T00:26:42,42.805,6.029,CST-1368DR,6580,9225,15209,0.106,551
2020-03-23T00:29:43,42.805,6.029,CST-1368DR,6580,9224,15208,0.106,551
2020-03-23T00:32:45,42.805,6.029,CST-1368DR,6580,9224,15208,0.106,551
2020-03-23T00:35:47,42.805,6.029,CST-1368DR,6580,9224,15208,0.106,551
2020-03-23T00:38:49,42.805,6.029,CST-1368DR,6580,9224,15207,0.106,551
2020-03-23T00:41:50,42.805,6.029,CST-1368DR,6580,9224,15207,0.106,551
2020-03-23T00:44:52,42.805,6.029,CST-1368DR,6580,9224,15206,0.106,551
2020-03-23T00:47:54,42.805,6.029,CST-1368DR,6580,9225,15209,0.106,551
2020-03-23T00:50:56,42.805,6.029,CST-1368DR,6580,9224,15207,0.106,551
2020-03-23T00:53:58,42.805,6.029,CST-1368DR,6580,9224,15207,0.106,551
2020-03-23T00:56:59,42.805,6.029,CST-1368DR,6580,9223,15205,0.107,551
2020-03-23T01:00:01,42.805,6.029,CST-1368DR,6580,9225,15208,0.106,551
2020-03-23T01:03:03,42.805,6.029,CST-1368DR,6579,9224,15209,0.106,551
2020-03-23T01:06:04,42.805,6.029,CST-1368DR,6580,9225,15208,0.106,550
2020-03-23T01:09:06,42.805,6.029,CST-1368DR,6580,9225,15209,0.106,551
2020-03-23T01:12:08,42.805,6.029,CST-1368DR,6580,9223,15206,0.106,550
2020-03-23T01:15:09,42.805,6.029,CST-1368DR,6580,9224,15207,0.106,551
2020-03-23T01:18:11,42.805,6.029,CST-1368DR,6579,9224,15209,0.106,551
2020-03-23T01:21:13,42.805,6.029,CST-1368DR,6580,9224,15206,0.106,551
2020-03-23T01:24:15,42.805,6.029,CST-1368DR,6579,9224,15209,0.106,551
2020-03-23T01:27:16,42.805,6.029,CST-1368DR,6579,9224,15209,0.106,551
2020-03-23T01:30:18,42.805,6.029,CST-1368DR,6580,9223,15205,0.107,551
2020-03-23T01:33:20,42.805,6.029,CST-1368DR,6579,9222,15206,0.106,551
2020-03-23T01:36:21,42.805,6.029,CST-1368DR,6579,9222,15206,0.106,551
2020-03-23T01:39:23,42.805,6.029,CST-1368DR,6579,9224,15209,0.106,551
2020-03-23T01:42:25,42.805,6.029,CST-1368DR,6579,9222,15207,0.106,551
2020-03-23T01:45:27,42.805,6.029,CST-1368DR,6579,9223,15208,0.106,550
2020-03-23T01:48:28,42.805,6.029,CST-1368DR,6579,9224,15209,0.106,551
2020-03-23T01:51:30,42.805,6.029,CST-1368DR,6579,9222,15205,0.107,551
2020-03-23T01:54:32,42.805,6.029,CST-1368DR,6579,9224,15209,0.106,551
2020-03-23T01:57:33,42.805,6.029,CST-1368DR,6579,9222,15206,0.106,551
2020-03-23T02:00:35,42.805,6.029,CST-1368DR,6579,9223,15207,0.106,551
2020-03-23T02:03:37,42.805,6.029,CST-1368DR,6579,9224,15209,0.106,551
2020-03-23T02:06:38,42.805,6.029,CST-1368DR,6579,9224,15209,0.106,551
2020-03-23T02:09:40,42.805,6.029,CST-1368DR,6579,9224,15210,0.105,551
2020-03-23T02:12:42,42.805,6.029,CST-1368DR,6579,9225,15210,0.105,551
2020-03-23T02:15:43,42.805,6.029,CST-1368DR,6579,9223,15208,0.106,551
2020-03-23T02:18:45,42.805,6.029,CST-1368DR,6579,9224,15209,0.106,551
2020-03-23T02:21:47,42.805,6.029,CST-1368DR,6579,9224,15209,0.106,551
2020-03-23T02:24:49,42.805,6.029,CST-1368DR,6579,9222,15206,0.106,551
2020-03-23T02:27:50,42.805,6.029,CST-1368DR,6579,9223,15208,0.106,550
2020-03-23T02:30:52,42.805,6.029,CST-1368DR,6579,9222,15206,0.106,551
2020-03-23T02:33:54,42.805,6.029,CST-1368DR,6579,9225,15211,0.105,551
2020-03-23T02:36:55,42.805,6.029,CST-1368DR,6579,9223,15207,0.106,551
2020-03-23T02:39:57,42.805,6.029,CST-1368DR,6579,9224,15209,0.106,551
2020-03-23T02:42:59,42.805,6.029,CST-1368DR,6579,9223,15207,0.106,551
2020-03-23T02:46:01,42.805,6.029,CST-1368DR,6579,9223,15208,0.106,551
2020-03-23T02:49:02,42.805,6.029,CST-1368DR,6579,9223,15207,0.106,551
2020-03-23T02:52:04,42.805,6.029,CST-1368DR,6579,9222,15207,0.106,551
2020-03-23T02:55:06,42.805,6.029,CST-1368DR,6579,9222,15206,0.106,551
2020-03-23T02:58:07,42.805,6.029,CST-1368DR,6579,9223,15208,0.106,551
2020-03-23T03:01:09,42.805,6.029,CST-1368DR,6579,9224,15209,0.106,551
2020-03-23T03:04:11,42.805,6.029,CST-1368DR,6579,9224,15209,0.106,551
2020-03-23T03:07:13,42.805,6.029,CST-1368DR,6579,9224,15209,0.106,551
2020-03-23T03:10:14,42.805,6.029,CST-1368DR,6579,9218,15200,0.108,551
2020-03-23T03:13:16,42.805,6.029,CST-1368DR,6579,9223,15208,0.106,551
2020-03-23T03:16:18,42.805,6.029,CST-1368DR,6579,9224,15209,0.106,551
2020-03-23T03:19:19,42.805,6.029,CST-1368DR,6579,9222,15205,0.107,551
2020-03-23T03:22:21,42.805,6.029,CST-1368DR,6579,9222,15205,0.107,551
2020-03-23T03:25:23,42.805,6.029,CST-1368DR,6579,9222,15206,0.106,551
2020-03-23T03:28:24,42.805,6.029,CST-1368DR,6579,9223,15208,0.106,551
2020-03-23T03:31:26,42.805,6.029,CST-1368DR,6579,9223,15208,0.106,551
2020-03-23T03:34:28,42.805,6.029,CST-1368DR,6579,9223,15207,0.106,551
2020-03-23T03:37:30,42.805,6.029,CST-1368DR,6579,9222,15207,0.106,551
2020-03-23T03:40:31,42.805,6.029,CST-1368DR,6579,9224,15209,0.106,551
2020-03-23T03:43:33,42.805,6.029,CST-1368DR,6579,9222,15205,0.107,551
2020-03-23T03:46:35,42.805,6.029,CST-1368DR,6579,9224,15209,0.106,551
2020-03-23T03:49:36,42.805,6.029,CST-1368DR,6579,9223,15207,0.106,551
2020-03-23T03:52:38,42.805,6.029,CST-1368DR,6579,9224,15210,0.105,551
2020-03-23T03:55:40,42.805,6.029,CST-1368DR,6579,9223,15208,0.106,551
2020-03-23T03:58:41,42.805,6.029,CST-1368DR,6579,9222,15207,0.106,551
2020-03-23T04:01:43,42.805,6.029,CST-1368DR,6579,9222,15206,0.106,551
2020-03-23T04:04:45,42.805,6.029,CST-1368DR,6579,9223,15207,0.106,551
2020-03-23T04:07:46,42.805,6.029,CST-1368DR,6579,9221,15204,0.107,551
2020-03-23T04:10:48,42.805,6.029,CST-1368DR,6579,9223,15207,0.106,551
2020-03-23T04:13:50,42.805,6.029,CST-1368DR,6579,9221,15205,0.107,551
2020-03-23T04:16:51,42.805,6.029,CST-1368DR,6579,9223,15207,0.106,551
2020-03-23T04:19:53,42.805,6.029,CST-1368DR,6579,9224,15209,0.106,551
2020-03-23T04:22:55,42.805,6.029,CST-1368DR,6579,9224,15210,0.105,551
2020-03-23T04:25:57,42.805,6.029,CST-1368DR,6579,9222,15206,0.106,551
2020-03-23T04:28:58,42.805,6.029,CST-1368DR,6579,9221,15205,0.107,551
2020-03-23T04:32:00,42.805,6.029,CST-1368DR,6579,9224,15209,0.106,551
2020-03-23T04:35:02,42.805,6.029,CST-1368DR,6579,9223,15208,0.106,551
2020-03-23T04:38:04,42.805,6.029,CST-1368DR,6579,9223,15208,0.106,551
2020-03-23T04:41:06,42.805,6.029,CST-1368DR,6579,9223,15207,0.106,551
2020-03-23T04:44:07,42.805,6.029,CST-1368DR,6579,9220,15203,0.107,551
2020-03-23T04:47:09,42.805,6.029,CST-1368DR,6579,9224,15209,0.106,551
2020-03-23T04:50:11,42.805,6.029,CST-1368DR,6579,9223,15207,0.106,551
2020-03-23T04:53:12,42.805,6.029,CST-1368DR,6579,9222,15206,0.106,551
2020-03-23T04:56:14,42.805,6.029,CST-1368DR,6579,9223,15207,0.106,551
2020-03-23T04:59:16,42.805,6.029,CST-1368DR,6579,9223,15208,0.106,551
2020-03-23T05:02:17,42.805,6.029,CST-1368DR,6579,9221,15205,0.107,551
2020-03-23T05:05:19,42.805,6.029,CST-1368DR,6579,9223,15207,0.106,551
2020-03-23T05:08:21,42.805,6.029,CST-1368DR,6579,9222,15207,0.106,551
2020-03-23T05:11:22,42.805,6.029,CST-1368DR,6579,9222,15207,0.106,551
2020-03-23T05:14:24,42.805,6.029,CST-1368DR,6579,9223,15208,0.106,551
2020-03-23T05:17:26,42.805,6.029,CST-1368DR,6579,9224,15209,0.106,551
2020-03-23T05:20:27,42.805,6.029,CST-1368DR,6579,9218,15200,0.108,550
2020-03-23T05:23:29,42.805,6.029,CST-1368DR,6579,9224,15209,0.106,551
2020-03-23T05:26:31,42.805,6.029,CST-1368DR,6579,9222,15205,0.107,551
2020-03-23T05:29:33,42.805,6.029,CST-1368DR,6579,9222,15207,0.106,550
2020-03-23T05:32:34,42.805,6.029,CST-1368DR,6579,9222,15206,0.106,551
2020-03-23T05:35:36,42.805,6.029,CST-1368DR,6579,9221,15205,0.107,551
2020-03-23T05:38:38,42.805,6.029,CST-1368DR,6579,9222,15206,0.106,551
2020-03-23T05:41:40,42.805,6.029,CST-1368DR,6579,9222,15206,0.106,550
2020-03-23T05:44:41,42.805,6.029,CST-1368DR,6578,9222,15207,0.106,551
2020-03-23T05:47:43,42.805,6.029,CST-1368DR,6579,9221,15205,0.107,551
2020-03-23T05:50:45,42.805,6.029,CST-1368DR,6578,9223,15210,0.105,551
2020-03-23T05:53:46,42.805,6.029,CST-1368DR,6579,9220,15203,0.107,551
2020-03-23T05:56:48,42.805,6.029,CST-1368DR,6579,9224,15209,0.106,551
2020-03-23T05:59:50,42.805,6.029,CST-1368DR,6579,9224,15209,0.106,551
2020-03-23T06:02:51,42.805,6.029,CST-1368DR,6578,9223,15210,0.105,551
2020-03-23T06:05:53,42.805,6.029,CST-1368DR,6579,9223,15208,0.106,551
2020-03-23T06:08:55,42.805,6.029,CST-1368DR,6578,9223,15210,0.105,551
2020-03-23T06:11:56,42.805,6.029,CST-1368DR,6578,9222,15207,0.106,551
2020-03-23T06:14:58,42.805,6.029,CST-1368DR,6578,9221,15206,0.106,550
2020-03-23T06:18:00,42.805,6.029,CST-1368DR,6579,9223,15207,0.106,551
2020-03-23T06:21:02,42.805,6.029,CST-1368DR,6578,9223,15210,0.105,551
2020-03-23T06:24:03,42.805,6.029,CST-1368DR,6578,9224,15211,0.105,551
2020-03-23T06:27:05,42.805,6.029,CST-1368DR,6578,9222,15208,0.106,551
2020-03-23T06:30:07,42.805,6.029,CST-1368DR,6578,9223,15209,0.106,551
2020-03-23T06:33:08,42.805,6.029,CST-1368DR,6578,9222,15208,0.106,551
2020-03-23T06:36:10,42.805,6.029,CST-1368DR,6578,9224,15211,0.105,551
2020-03-23T06:39:12,42.805,6.029,CST-1368DR,6578,9224,15211,0.105,551
2020-03-23T06:42:13,42.805,6.029,CST-1368DR,6578,9222,15209,0.106,551
2020-03-23T06:45:15,42.805,6.029,CST-1368DR,6578,9223,15210,0.105,551
2020-03-23T06:48:17,42.805,6.029,CST-1368DR,6578,9222,15207,0.106,551
2020-03-23T06:51:18,42.805,6.029,CST-1368DR,6578,9217,15200,0.108,551
2020-03-23T06:54:20,42.805,6.029,CST-1368DR,6578,9222,15208,0.106,551
2020-03-23T06:57:22,42.805,6.029,CST-1368DR,6578,9222,15209,0.106,551
2020-03-23T07:00:24,42.805,6.029,CST-1368DR,6578,9222,15207,0.106,551
2020-03-23T07:03:25,42.805,6.029,CST-1368DR,6578,9222,15209,0.106,551
2020-03-23T07:06:27,42.805,6.029,CST-1368DR,6578,9222,15209,0.106,551
2020-03-23T07:09:29,42.805,6.029,CST-1368DR,6578,9223,15209,0.106,551
2020-03-23T07:12:31,42.805,6.029,CST-1368DR,6578,9222,15207,0.106,551
2020-03-23T07:15:32,42.805,6.029,CST-1368DR,6578,9224,15211,0.105,551
2020-03-23T07:18:34,42.805,6.029,CST-1368DR,6578,9222,15208,0.106,551
2020-03-23T07:21:36,42.805,6.029,CST-1368DR,6578,9220,15204,0.107,551
2020-03-23T07:24:37,42.805,6.029,CST-1368DR,6578,9222,15209,0.106,551
2020-03-23T07:27:39,42.805,6.029,CST-1368DR,6578,9222,15207,0.106,551
2020-03-23T07:30:41,42.805,6.029,CST-1368DR,6578,9222,15208,0.106,551
2020-03-23T07:33:42,42.805,6.029,CST-1368DR,6578,9223,15209,0.106,551
2020-03-23T07:36:44,42.805,6.029,CST-1368DR,6578,9218,15201,0.108,551
2020-03-23T07:39:46,42.805,6.029,CST-1368DR,6578,9224,15211,0.105,551
2020-03-23T07:42:48,42.805,6.029,CST-1368DR,6578,9223,15210,0.105,551
2020-03-23T07:45:49,42.805,6.029,CST-1368DR,6578,9223,15210,0.105,551
2020-03-23T07:48:51,42.805,6.029,CST-1368DR,6578,9223,15209,0.106,551
2020-03-23T07:51:53,42.805,6.029,CST-1368DR,6578,9222,15208,0.106,550
2020-03-23T07:54:55,42.805,6.029,CST-1368DR,6578,9223,15209,0.106,550
2020-03-23T07:57:56,42.805,6.029,CST-1368DR,6578,9221,15207,0.106,551
2020-03-23T08:00:58,42.805,6.029,CST-1368DR,6578,9222,15208,0.106,551
2020-03-23T08:04:00,42.805,6.029,CST-1368DR,6578,9218,15202,0.107,551
2020-03-23T08:07:01,42.805,6.029,CST-1368DR,6578,9221,15206,0.106,551
2020-03-23T08:10:03,42.805,6.029,CST-1368DR,6578,9223,15209,0.106,551
2020-03-23T08:13:05,42.805,6.029,CST-1368DR,6578,9223,15209,0.106,551
2020-03-23T08:16:07,42.805,6.029,CST-1368DR,6578,9222,15209,0.106,551
2020-03-23T08:19:08,42.805,6.029,CST-1368DR,6578,9223,15210,0.105,551
2020-03-23T08:22:10,42.805,6.029,CST-1368DR,6578,9222,15208,0.106,551
2020-03-23T08:25:12,42.805,6.029,CST-1368DR,6578,9222,15209,0.106,551
2020-03-23T08:28:13,42.805,6.029,CST-1368DR,6578,9222,15209,0.106,551
2020-03-23T08:31:15,42.805,6.029,CST-1368DR,6578,9222,15208,0.106,551
2020-03-23T08:34:17,42.805,6.029,CST-1368DR,6578,9223,15210,0.105,551
2020-03-23T08:37:19,42.805,6.029,CST-1368DR,6578,9221,15207,0.106,551
2020-03-23T08:40:20,42.805,6.029,CST-1368DR,6578,9222,15207,0.106,551
2020-03-23T08:43:22,42.805,6.029,CST-1368DR,6578,9218,15201,0.108,551
2020-03-23T08:46:24,42.805,6.029,CST-1368DR,6578,9221,15207,0.106,550
2020-03-23T08:49:26,42.805,6.029,CST-1368DR,6578,9219,15203,0.107,551
2020-03-23T08:52:27,42.805,6.029,CST-1368DR,6578,9224,15211,0.105,551
2020-03-23T08:55:29,42.805,6.029,CST-1368DR,6578,9222,15207,0.106,551
2020-03-23T08:58:31,42.805,6.029,CST-1368DR,6578,9221,15206,0.106,551
2020-03-23T09:01:32,42.805,6.029,CST-1368DR,6578,9221,15207,0.106,551
2020-03-23T09:04:34,42.805,6.029,CST-1368DR,6578,9219,15203,0.107,550
2020-03-23T09:07:36,42.805,6.029,CST-1368DR,6578,9222,15207,0.106,551
2020-03-23T09:10:37,42.805,6.029,CST-1368DR,6578,9220,15205,0.107,551
2020-03-23T09:13:39,42.805,6.029,CST-1368DR,6578,9222,15209,0.106,551
2020-03-23T09:16:41,42.805,6.029,CST-1368DR,6578,9222,15208,0.106,551
2020-03-23T09:19:42,42.805,6.029,CST-1368DR,6578,9221,15207,0.106,551
2020-03-23T09:22:44,42.805,6.029,CST-1368DR,6578,9222,15208,0.106,551
2020-03-23T09:25:46,42.805,6.029,CST-1368DR,6578,9222,15208,0.106,551
2020-03-23T09:28:47,42.805,6.029,CST-1368DR,6578,9222,15208,0.106,551
2020-03-23T09:31:49,42.805,6.029,CST-1368DR,6578,9222,15209,0.106,551
2020-03-23T09:34:51,42.805,6.029,CST-1368DR,6578,9220,15205,0.107,551
2020-03-23T09:37:53,42.805,6.029,CST-1368DR,6578,9221,15207,0.106,551
2020-03-23T09:40:54,42.805,6.029,CST-1368DR,6578,9220,15205,0.107,551
2020-03-23T09:43:56,42.805,6.029,CST-1368DR,6578,9221,15207,0.106,551
2020-03-23T09:46:58,42.805,6.029,CST-1368DR,6578,9219,15203,0.107,551
2020-03-23T09:50:00,42.805,6.029,CST-1368DR,6578,9220,15204,0.107,551
2020-03-23T09:53:01,42.805,6.029,CST-1368DR,6578,9220,15205,0.107,550
2020-03-23T09:56:03,42.805,6.029,CST-1368DR,6578,9214,15195,0.109,551
2020-03-23T09:59:05,42.805,6.029,CST-1368DR,6578,9222,15207,0.106,551
2020-03-23T10:02:06,42.805,6.029,CST-1368DR,6578,9222,15208,0.106,551
2020-03-23T10:05:08,42.805,6.029,CST-1368DR,6578,9221,15206,0.106,551
2020-03-23T10:08:10,42.805,6.029,CST-1368DR,6578,9222,15208,0.106,551
2020-03-23T10:11:12,42.805,6.029,CST-1368DR,6578,9222,15207,0.106,551
2020-03-23T10:14:13,42.805,6.029,CST-1368DR,6577,9221,15208,0.106,551
2020-03-23T10:17:15,42.805,6.029,CST-1368DR,6578,9221,15206,0.106,551
2020-03-23T10:20:17,42.805,6.029,CST-1368DR,6577,9222,15210,0.105,551
2020-03-23T10:23:18,42.805,6.029,CST-1368DR,6577,9222,15210,0.105,551
2020-03-23T10:26:20,42.805,6.029,CST-1368DR,6577,9222,15210,0.105,551
2020-03-23T10:29:22,42.805,6.029,CST-1368DR,6577,9220,15207,0.106,551
2020-03-23T10:32:24,42.805,6.029,CST-1368DR,6577,9221,15209,0.106,551
2020-03-23T10:35:25,42.805,6.029,CST-1368DR,6577,9220,15208,0.106,551
2020-03-23T10:38:27,42.805,6.029,CST-1368DR,6577,9221,15209,0.106,551
2020-03-23T10:41:29,42.805,6.029,CST-1368DR,6577,9222,15210,0.105,551
2020-03-23T10:44:31,42.805,6.029,CST-1368DR,6577,9221,15209,0.106,550
2020-03-23T10:47:32,42.805,6.029,CST-1368DR,6577,9221,15209,0.106,550
2020-03-23T10:50:34,42.805,6.029,CST-1368DR,6577,9221,15209,0.106,551
2020-03-23T10:53:36,42.805,6.029,CST-1368DR,6577,9222,15210,0.105,550
2020-03-23T10:56:37,42.805,6.029,CST-1368DR,6577,9222,15210,0.105,551
2020-03-23T10:59:39,42.805,6.029,CST-1368DR,6577,9220,15208,0.106,551
2020-03-23T11:02:41,42.805,6.029,CST-1368DR,6577,9220,15208,0.106,551
2020-03-23T11:05:43,42.805,6.029,CST-1368DR,6577,9221,15208,0.106,551
2020-03-23T11:08:44,42.805,6.029,CST-1368DR,6577,9219,15205,0.107,551
2020-03-23T11:11:46,42.805,6.029,CST-1368DR,6577,9220,15207,0.106,551
2020-03-23T11:14:48,42.805,6.029,CST-1368DR,6577,9220,15208,0.106,551
2020-03-23T11:17:50,42.805,6.029,CST-1368DR,6577,9221,15208,0.106,551
2020-03-23T11:20:51,42.805,6.029,CST-1368DR,6577,9220,15207,0.106,551
2020-03-23T11:23:53,42.805,6.029,CST-1368DR,6577,9221,15208,0.106,551
2020-03-23T11:26:55,42.805,6.029,CST-1368DR,6577,9221,15208,0.106,551
2020-03-23T11:29:56,42.805,6.029,CST-1368DR,6577,9220,15208,0.106,551
2020-03-23T11:32:58,42.805,6.029,CST-1368DR,6577,9219,15206,0.106,551
2020-03-23T11:36:00,42.805,6.029,CST-1368DR,6577,9220,15208,0.106,551
2020-03-23T11:39:01,42.805,6.029,CST-1368DR,6577,9220,15208,0.106,551
2020-03-23T11:42:03,42.805,6.029,CST-1368DR,6577,9219,15206,0.106,551
2020-03-23T11:45:05,42.805,6.029,CST-1368DR,6577,9221,15209,0.106,551
2020-03-23T11:48:07,42.805,6.029,CST-1368DR,6577,9220,15206,0.106,551
2020-03-23T11:51:08,42.805,6.029,CST-1368DR,6577,9218,15203,0.107,551
2020-03-23T11:54:10,42.805,6.029,CST-1368DR,6577,9220,15208,0.106,551
2020-03-23T11:57:12,42.805,6.029,CST-1368DR,6577,9217,15202,0.107,551
2020-03-23T12:00:13,42.805,6.029,CST-1368DR,6577,9211,15192,0.110,551
2020-03-23T12:03:15,42.805,6.029,CST-1368DR,6577,9219,15205,0.107,551
2020-03-23T12:06:17,42.805,6.029,CST-1368DR,6577,9220,15208,0.106,551
2020-03-23T12:09:19,42.805,6.029,CST-1368DR,6577,9221,15208,0.106,551
2020-03-23T12:12:20,42.805,6.029,CST-1368DR,6577,9220,15207,0.106,550
2020-03-23T12:15:22,42.805,6.029,CST-1368DR,6577,9218,15203,0.107,551
2020-03-23T12:18:24,42.805,6.029,CST-1368DR,6577,9218,15204,0.107,551
2020-03-23T12:21:25,42.805,6.029,CST-1368DR,6577,9219,15206,0.106,551
2020-03-23T12:24:27,42.805,6.029,CST-1368DR,6577,9219,15206,0.106,550
2020-03-23T12:27:29,42.805,6.029,CST-1368DR,6577,9219,15206,0.106,551
2020-03-23T12:30:31,42.805,6.029,CST-1368DR,6577,9218,15204,0.107,551
2020-03-23T12:33:32,42.805,6.029,CST-1368DR,6577,9218,15204,0.107,551
2020-03-23T12:36:34,42.805,6.029,CST-1368DR,6577,9219,15205,0.107,551
2020-03-23T12:39:36,42.805,6.029,CST-1368DR,6577,9218,15204,0.107,551
2020-03-23T12:42:38,42.805,6.029,CST-1368DR,6577,9218,15204,0.107,551
2020-03-23T12:45:39,42.805,6.029,CST-1368DR,6577,9219,15206,0.106,551
2020-03-23T12:48:41,42.805,6.029,CST-1368DR,6577,9218,15203,0.107,551
2020-03-23T12:51:43,42.805,6.029,CST-1368DR,6577,9220,15206,0.106,551
2020-03-23T12:54:44,42.805,6.029,CST-1368DR,6577,9220,15206,0.106,551
2020-03-23T12:57:46,42.805,6.029,CST-1368DR,6577,9219,15206,0.106,551
2020-03-23T13:00:48,42.805,6.029,CST-1368DR,6577,9218,15204,0.107,551
2020-03-23T13:03:50,42.805,6.029,CST-1368DR,6577,9218,15204,0.107,551
2020-03-23T13:06:51,42.805,6.029,CST-1368DR,6577,9219,15205,0.107,551
2020-03-23T13:09:53,42.805,6.029,CST-1368DR,6577,9218,15204,0.107,550
2020-03-23T13:12:55,42.805,6.029,CST-1368DR,6577,9220,15206,0.106,551
2020-03-23T13:15:56,42.805,6.029,CST-1368DR,6577,9219,15206,0.106,551
2020-03-23T13:18:58,42.805,6.029,CST-1368DR,6577,9218,15204,0.107,551
2020-03-23T13:22:00,42.805,6.029,CST-1368DR,6577,9220,15206,0.106,551
2020-03-23T13:25:01,42.805,6.029,CST-1368DR,6577,9220,15206,0.106,550
2020-03-23T13:28:03,42.805,6.029,CST-1368DR,6577,9220,15207,0.106,551
2020-03-23T13:31:05,42.805,6.029,CST-1368DR,6577,9218,15203,0.107,551
2020-03-23T13:34:06,42.805,6.029,CST-1368DR,6577,9218,15203,0.107,551
2020-03-23T13:37:08,42.805,6.029,CST-1368DR,6577,9218,15204,0.107,551
2020-03-23T13:40:10,42.805,6.029,CST-1368DR,6577,9219,15206,0.106,551
2020-03-23T13:43:12,42.805,6.029,CST-1368DR,6577,9219,15205,0.107,551
2020-03-23T13:46:13,42.805,6.029,CST-1368DR,6577,9219,15205,0.107,551
2020-03-23T13:49:15,42.805,6.029,CST-1368DR,6577,9218,15204,0.107,551
2020-03-23T13:52:17,42.805,6.029,CST-1368DR,6577,9219,15205,0.107,551
2020-03-23T13:55:18,42.805,6.029,CST-1368DR,6577,9219,15206,0.106,551
2020-03-23T13:58:20,42.805,6.029,CST-1368DR,6577,9219,15205,0.107,551
2020-03-23T14:01:22,42.805,6.029,CST-1368DR,6577,9219,15206,0.106,551
2020-03-23T14:04:23,42.805,6.029,CST-1368DR,6577,9219,15206,0.106,551
2020-03-23T14:07:25,42.805,6.029,CST-1368DR,6577,9219,15206,0.106,551
2020-03-23T14:10:27,42.805,6.029,CST-1368DR,6577,9220,15207,0.106,550
2020-03-23T14:13:28,42.805,6.029,CST-1368DR,6577,9219,15205,0.107,551
2020-03-23T14:16:30,42.805,6.029,CST-1368DR,6577,9220,15208,0.106,551
2020-03-23T14:19:32,42.805,6.029,CST-1368DR,6577,9220,15207,0.106,551
2020-03-23T14:22:33,42.805,6.029,CST-1368DR,6577,9220,15207,0.106,551
2020-03-23T14:25:35,42.805,6.029,CST-1368DR,6577,9220,15207,0.106,551
2020-03-23T14:28:37,42.805,6.029,CST-1368DR,6577,9220,15208,0.106,551
2020-03-23T14:31:38,42.805,6.029,CST-1368DR,6577,9220,15206,0.106,551
2020-03-23T14:34:40,42.805,6.029,CST-1368DR,6577,9219,15205,0.107,551
2020-03-23T14:37:42,42.805,6.029,CST-1368DR,6577,9218,15204,0.107,551
2020-03-23T14:40:43,42.805,6.029,CST-1368DR,6577,9219,15206,0.106,551
2020-03-23T14:43:45,42.805,6.029,CST-1368DR,6577,9218,15204,0.107,551
2020-03-23T14:46:47,42.805,6.029,CST-1368DR,6577,9219,15206,0.106,551
2020-03-23T14:49:48,42.805,6.029,CST-1368DR,6577,9220,15206,0.106,551
2020-03-23T14:52:50,42.805,6.029,CST-1368DR,6577,9219,15206,0.106,551
2020-03-23T14:55:52,42.805,6.029,CST-1368DR,6577,9219,15206,0.106,551
2020-03-23T14:58:53,42.805,6.029,CST-1368DR,6577,9220,15206,0.106,551
2020-03-23T15:01:55,42.805,6.029,CST-1368DR,6577,9219,15205,0.107,551
2020-03-23T15:04:57,42.805,6.029,CST-1368DR,6577,9220,15206,0.106,551
2020-03-23T15:07:58,42.805,6.029,CST-1368DR,6577,9219,15205,0.107,551
2020-03-23T15:11:00,42.805,6.029,CST-1368DR,6577,9219,15205,0.107,551
2020-03-23T15:14:02,42.805,6.029,CST-1368DR,6577,9220,15207,0.106,551
2020-03-23T15:17:03,42.805,6.029,CST-1368DR,6577,9219,15206,0.106,551
2020-03-23T15:20:05,42.805,6.029,CST-1368DR,6577,9219,15206,0.106,551
2020-03-23T15:23:07,42.805,6.029,CST-1368DR,6577,9220,15206,0.106,551
2020-03-23T15:26:08,42.805,6.029,CST-1368DR,6577,9218,15204,0.107,551
2020-03-23T15:29:10,42.805,6.029,CST-1368DR,6577,9219,15205,0.107,551
2020-03-23T15:32:12,42.805,6.029,CST-1368DR,6577,9219,15206,0.106,551
2020-03-23T15:35:13,42.805,6.029,CST-1368DR,6576,9218,15206,0.106,551
2020-03-23T15:38:15,42.805,6.029,CST-1368DR,6577,9218,15204,0.107,550
2020-03-23T15:41:17,42.805,6.029,CST-1368DR,6576,9217,15205,0.107,551
2020-03-23T15:44:18,42.805,6.029,CST-1368DR,6576,9219,15207,0.106,551
2020-03-23T15:47:20,42.805,6.029,CST-1368DR,6576,9220,15209,0.106,551
2020-03-23T15:50:22,42.805,6.029,CST-1368DR,6576,9218,15206,0.106,551
2020-03-23T15:53:23,42.805,6.029,CST-1368DR,6576,9219,15208,0.106,551
2020-03-23T15:56:25,42.805,6.029,CST-1368DR,6576,9218,15206,0.106,551
2020-03-23T15:59:27,42.805,6.029,CST-1368DR,6576,9219,15208,0.106,551
2020-03-23T16:02:28,42.805,6.029,CST-1368DR,6576,9219,15208,0.106,551
2020-03-23T16:05:30,42.805,6.029,CST-1368DR,6576,9218,15206,0.106,551
2020-03-23T16:08:32,42.805,6.029,CST-1368DR,6576,9219,15207,0.106,551
2020-03-23T16:11:33,42.805,6.029,CST-1368DR,6576,9219,15207,0.106,551
2020-03-23T16:14:35,42.805,6.029,CST-1368DR,6576,9219,15207,0.106,551
2020-03-23T16:17:37,42.805,6.029,CST-1368DR,6576,9219,15208,0.106,551
2020-03-23T16:20:38,42.805,6.029,CST-1368DR,6576,9219,15207,0.106,551
2020-03-23T16:23:40,42.805,6.029,CST-1368DR,6576,9219,15207,0.106,551
2020-03-23T16:26:42,42.805,6.029,CST-1368DR,6576,9219,15207,0.106,550
2020-03-23T16:29:44,42.805,6.029,CST-1368DR,6576,9219,15208,0.106,551
2020-03-23T16:32:45,42.805,6.029,CST-1368DR,6576,9219,15208,0.106,551
2020-03-23T16:35:47,42.805,6.029,CST-1368DR,6576,9219,15208,0.106,551
2020-03-23T16:38:49,42.805,6.029,CST-1368DR,6576,9218,15206,0.106,551
2020-03-23T16:41:50,42.805,6.029,CST-1368DR,6576,9220,15209,0.106,551
2020-03-23T16:44:52,42.805,6.029,CST-1368DR,6576,9219,15207,0.106,551
2020-03-23T16:47:54,42.805,6.029,CST-1368DR,6576,9219,15207,0.106,551
2020-03-23T16:50:55,42.805,6.029,CST-1368DR,6576,9218,15206,0.106,551
2020-03-23T16:53:57,42.805,6.029,CST-1368DR,6576,9219,15207,0.106,551